Regional Weather Roundup
Issued by NWS Wakefield, VA

Home | Current Version | Previous Version | Graphics & Text | Print | Product List | Glossary On
Versions: 1 2 3 4 5 6 7 8 9 10 11 12 13 14 15 16 17 18 19 20 21 22 23 24 25 26 27
000
ASUS41 KAKQ 041515
RWRAKQ

REGIONAL WEATHER ROUNDUP
NATIONAL WEATHER SERVICE WAKEFIELD VA
1000 AM EST SUN DEC 04 2016

Note: "fair" indicates few or no clouds below 12,000 feet with no
significant weather and/or obstructions to visibility. * = Denotes
station may not report precipitation (e.g., rain,snow,etc.),
thunder or fog.

VAZ042-051-052>054-056-041600-
NORTHERN VIRGINIA

CITY           SKY/WX    TMP DP  RH WIND       PRES   REMARKS
WASH NATIONAL  CLOUDY    42  29  59 NW8       30.31R
DULLES         CLOUDY    41  28  60 N5        30.30R
FORT BELVOIR   CLOUDY    42  28  56 N5        30.30R
QUANTICO       CLOUDY    43  29  57 N5        30.32R
FREDERICKSBRG* CLOUDY    40  31  71 NW3       30.31R
STAFFORD*      MOSUNNY   39  30  70 CALM      30.35S
WARRENTON      CLOUDY    38  29  70 CALM      30.30S
CULPEPER*      CLOUDY    40  32  74 CALM      30.31R
MANASSAS*      SUNNY     37  34  87 CALM      30.31R
LEESBURG*      CLOUDY    43  32  65 MISG      30.30R
WINCHESTER     CLOUDY    36  28  75 SW3       30.28S
FRONT ROYAL*   FAIR      36  30  80 S5        30.28S
LURAY*         FAIR      34  32  93 CALM      30.29R
$$

VAZ048-049-060>072-079>083-041600-
CENTRAL AND SOUTH CENTRAL VIRGINIA

CITY           SKY/WX    TMP DP  RH WIND       PRES   REMARKS
RICHMOND       CLOUDY    39  28  65 N6        30.31S
CHESTERFIELD*  FAIR      41  18  38 CALM      30.32F
PETERSBURG*    CLOUDY    40  28  64 CALM      30.32S
HANOVER        CLOUDY    39  28  64 W3        30.32S
TAPPAHANNOCK*  CLOUDY    39  28  64 CALM      30.31R
QUINTON*       FAIR      38  30  71 CALM      30.31S
CHARLOTTSVILLE CLOUDY    38  29  70 CALM      30.30R
GORDONSVILLE*  FAIR      40  30  66 CALM      30.30S
ORANGE*          N/A     41  30  65 CALM      30.32R
LOUISA*        CLOUDY    41  34  75 CALM      30.29S
BUMPASS*       FAIR      37  29  73 CALM      30.30S
FARMVILLE*     CLOUDY    39  36  87 CALM      30.30R
CREWE*         PTSUNNY   38  30  74 CALM      30.31S
FORT PICKETT*  FAIR      38  25  58 MISG      30.31R
CHASE CITY*    CLOUDY    40  27  61 CALM      30.31S
CLARKSVILLE*   CLOUDY    39  30  70 CALM      30.31S
SOUTH HILL*    CLOUDY    40  31  70 CALM      30.37R
LAWRENCEVILLE* PTSUNNY   41  29  63 CALM      30.31S
EMPORIA*       CLOUDY    41  32  70 N3        30.33S
$$

VAZ088>098-041600-
SOUTHEAST VIRGINIA

CITY           SKY/WX    TMP DP  RH WIND       PRES   REMARKS
NORFOLK        CLOUDY    47  37  68 N7        30.30R
VIRGINIA BEACH CLOUDY    48  35  60 N5        30.29R
NORFOLK NAVAL  CLOUDY    48  36  63 N7        30.32R
WEST POINT*    CLOUDY    39  31  74 CALM      30.33S
SALUDA*        FAIR      40  33  75 NW3       30.30R
NEWPORT NEWS   CLOUDY    43  33  68 N5        30.31R
LANGLEY AFB    CLOUDY    43  33  67 N6        30.30R
FORT EUSTIS    CLOUDY    43  31  63 N3        30.28S
WILLIAMSBURG*  CLOUDY    43  34  70 CALM      30.32S
HR EXEC AP*    FAIR      43  36  75 CALM      30.29F
FRANKLIN*      MOSUNNY   41  32  70 CALM      30.32S
US460-WAKEFLD  CLOUDY    41  31  67 N3        30.32S
$$

VAZ020-022-025-037-045-041600-
WEST CENTRAL AND SOUTHWEST VIRGINIA

CITY           SKY/WX    TMP DP  RH WIND       PRES   REMARKS
STAUNTON*      CLOUDY    32  29  88 CALM      30.30R
WAYNESBORO*    FAIR      32  28  84 CALM      30.27S
HOT SPRINGS VA CLOUDY    28  28 100 S8        30.15R
LYNCHBURG      CLOUDY    38  28  67 NE3       30.30S
DANVILLE       CLOUDY    40  30  67 NE6       30.31S
SOUTH BOSTON*  CLOUDY    39  29  67 CALM      30.31F
MARTINSVILLE   LGT RAIN  38  30  73 NE3       30.32F
ROANOKE        CLOUDY    38  28  67 S5        30.30S
BLACKSBURG     MIX PCPN  34  30  87 E7        30.26S
DUBLIN*        MIX PCPN  35  32  88 E3        30.24F
MARION*        DRIZZLE   35  32  92 E7        30.22S
HILLSVILLE*    MIX PCPN  33  32  96 CALM      30.19S
RICHLANDS*     DRIZZLE   38  37  93 N3        30.15R
WISE*          LGT RAIN  41  41 100 S6        30.16R
ABINGDON*      CLOUDY    39  37  91 E10       30.17S
$$

MDZ021>025-VAZ099-100-041600-
SOUTHERN MARYLAND AND THE DELMARVA PENINSULA

CITY           SKY/WX    TMP DP  RH WIND       PRES   REMARKS
PATUXENT RIVER CLOUDY    42  29  59 NW6       30.29S
BAY BRIDGE APT CLOUDY    43  32  65 NW8       30.29S
LEONARDTOWN    CLOUDY    41  30  65 CALM      30.31R
DOVER          CLOUDY    44  33  65 NW8       30.26R
GEORGETOWN     MOSUNNY   44  32  62 VRB5      30.28R
EASTON         MOSUNNY   45  34  65 NW6       30.32R
CAMBRIDGE      CLOUDY    41  32  70 CALM      30.28S
SALISBURY      CLOUDY    42  33  70 NW8       30.28R
OCEAN CITY     CLOUDY    43  33  68 NW7       30.29R
WALLOPS ISLAND PTSUNNY   42  34  73 NW7       30.29R
ACCOMACK*      CLOUDY    44  35  71 N5        30.29R
$$

NCZ012>017-030>032-041600-
NORTH CENTRAL AND EASTERN NORTH CAROLINA

CITY           SKY/WX    TMP DP  RH WIND       PRES   REMARKS
ROANOKE RAPIDS FAIR      41  32  70 N3        30.32S
RALEIGH        CLOUDY    43  30  60 VRB6      30.31S
ELIZABETH CITY CLOUDY    46  38  73 NW6       30.31R
AHOSKIE*       MOSUNNY   41  32  70 N3        30.32S
EDENTON*       CLOUDY    45  37  75 CALM      30.32S
CURRITUCK*     CLOUDY    46  38  73 NW6       30.31S
KILL DEVIL HLS CLOUDY    49  39  69 CALM      30.28R
MANTEO         CLOUDY    48  41  77 N6        30.30R
CAPE HATTERAS  CLOUDY    51  42  71 VRB3      30.29R
TARBORO*       NOT AVBL
GOLDSBORO      CLOUDY    44  39  83 NE5       30.28F
WASHINGTON     MOSUNNY   43  36  74 CALM      30.31F
GREENVILLE     CLOUDY    43  36  75 CALM      30.31F
NEW BERN       LGT RAIN  46  37  71 N6        30.31F
WILMINGTON     CLOUDY    46  39  76 NE9       30.28F
$$

VAZ048-041600-
ELSEWHERE

CITY           SKY/WX    TMP DP  RH WIND       PRES   REMARKS
HARRISBURG PA  CLOUDY    44  28  53 NW8       30.26R
BALTIMORE      CLOUDY    43  30  60 CALM      30.29R
ANNAPOLIS      CLOUDY    44  32  62 NW6       30.29R
ANDREWS AFB    CLOUDY    42  28  58 N6        30.28R
PHILADELPHIA   PTSUNNY   45  25  45 NW12      30.26S
HENDERSON NC   CLOUDY    38  28  65 CALM      30.32R
GREENSBORO     LGT RAIN  39  35  86 NE6       30.28S
ROCKY MOUNT    PTSUNNY   43  33  68 NE5       30.31F
$$

VAZ100-041600-
MARINE

STATION/POSITION TIME  TEMP    WIND        PRES    WAVE   SWELL
                       AIR SEA DIR/SP/G            HT/PER HT/PER
                 (UTC) (F)     (DEG/KT/KT) (MB)    (FT/S) (FT/S)
BRANDYWINE LGT   1448   43     350/ 10/ 13   N/A
CAPE MAY NJ      1448   44 47  350/  5/  7 1024.3S
LEWES DE         1448   44 49  320/  9/ 11 1024.9R
OCEAN-CITY-INLET 1448   43 50  330/  6/  8 1025.6R
WACHAPREAGUE VA  1448   44 48  350/  3/  6 1025.5R
THOMAS POINT MD  1500   42 49  330/  6/  7   N/A
GOOSES REEF MD   1450   43      10/ 10/ 12 1026.3R
COVE POINT MD    1448   42     360/  7/  9 1026.2S
SOLOMONS ISLAND  1448   42 50  330/  5/  6   N/A
BISHOPS HEAD MD  1448   43 43  340/  7/ 10 1025.7S
PINEY POINT MD   1448          360/  5/  6   N/A
POTOMAC MD       1450   43      10/  8/ 10 1024.9R
CAMBRIDGE MD     1448   42 47  330/  6/  8 1024.8S
LEWISETTA VA     1448   42 48  350/  3/  5 1025.6R
RAPPAHANNOCK LGT 1448           10/ 13/ 14 1026.1R
STINGRAY PT      1450   43     350/  8/ 10 1026.5R
YORK RVR RNG VA  1448   42     350/  9/ 11 1025.9R
YORKTOWN VA      1448   41 52  310/  6/  8 1026.1R
JAMESTOWN VA     1450   40     330/  4/  6   N/A
DOMINION TERM VA 1448   43     310/  3/  5 1026.3R
KIPTOPEKE VA     1448      50   40/  4/  6   N/A
CHES BAY BRIDGE  1448   46 53  360/  8/ 10 1026.2R
CAPE HENRY VA    1448   46     350/  6/  9   N/A
WILLOUBY STN VA  1448   44     340/  6/  7 1027.0R
S CRANEY ISL VA  1448   44     330/  5/  7 1026.3R
CAPE HENRY BUOY  1442      56                N/A     3/ 6
1ST LANDING BUOY 1450   46                 1026.2R
CAPE CHARLES BUO 1456      55                N/A     3/ 5
OFFSHORE WE BUOY 1451      57                N/A     4/ 6
64NM E OF VA BCH 1450   49 60   10/ 12/ 16 1024.5R   5/ 8   3/ 8
DUCK PIER NC     1448   46 55  310/  9/ 12 1025.3R
44100 DUCK FRF   1405      57                N/A     4/ 7
OREGON INLET NC  1442   50 55   10/  6/  8 1025.7R
HATTERAS NC      1448   50 55  350/ 11/ 13 1025.2R
DIAMOND SHLS NC  1450   55 76  360/ 12/ 16 1025.3R   5/ 9   5/ 9
CAPE LOOKOUT NC  1400   50     350/  9/ 11 1025.3R
$$




USA.gov is the U.S. government's official web portal to all federal, state and local government web resources and services.